DW4236 Weather Reports


time (UTC)temp
C
wind
direction
speed
KPH
gust
KPH
rain 1hr
cm
rain 24hr
cm
rain mn
cm
humidity
%
barometer
mb
20260831103104 17 258 0.0 0.0 0.00 0.08 0.00 95 1021.1
20260831102105 17 258 0.0 0.0 0.00 0.08 0.00 95 1021.0
20260831101103 17 258 0.0 0.0 0.00 0.08 0.00 95 1020.8
20260831100604 17 258 0.0 0.0 0.00 0.08 0.00 95 1020.8
20260831100104 17 258 0.0 0.0 0.00 0.08 0.00 95 1020.8
20260831095603 17 258 0.0 0.0 0.00 0.08 0.00 95 1020.8
20260831095105 17 258 0.0 0.0 0.00 0.08 0.00 95 1020.8
20260831094604 17 258 0.0 0.0 0.00 0.08 0.00 95 1020.7
20260831094104 17 258 0.0 0.0 0.00 0.08 0.00 95 1020.7
20260831093604 17 258 0.0 0.0 0.00 0.08 0.00 95 1020.6
20260831093104 17 258 0.0 0.0 0.00 0.08 0.00 95 1020.6
20260831092605 17 258 0.0 0.0 0.00 0.08 0.00 95 1020.7
20260831092105 17 258 0.0 0.0 0.00 0.08 0.00 95 1020.7
20260831091605 17 258 0.0 0.0 0.00 0.08 0.00 95 1020.7
20260831090604 17 258 0.0 0.0 0.00 0.08 0.00 95 1020.8
20260831090104 17 258 0.0 0.0 0.00 0.08 0.00 95 1020.8
20260831085104 17 258 0.0 0.0 0.00 0.08 0.00 95 1020.9
20260831084604 17 258 0.0 0.0 0.00 0.08 0.00 95 1020.8
20260831084104 17 258 0.0 0.0 0.00 0.08 0.00 94 1020.8
20260831083603 17 258 0.0 0.0 0.00 0.08 0.00 95 1020.7
20260831082604 17 258 0.0 0.0 0.00 0.08 0.00 94 1020.6
20260831082105 17 258 0.0 0.0 0.00 0.08 0.00 94 1020.7
20260831081604 17 258 0.0 0.0 0.00 0.08 0.00 94 1020.6
20260831081105 17 258 0.0 0.0 0.00 0.08 0.00 94 1020.7
20260831080605 17 258 0.0 0.0 0.00 0.08 0.00 94 1020.8
20260831080104 17 258 0.0 0.0 0.00 0.08 0.00 94 1020.7
20260831075604 17 258 0.0 0.0 0.00 0.08 0.00 94 1020.7
20260831074604 18 258 0.0 0.0 0.00 0.08 0.00 94 1020.7
20260831074104 18 258 0.0 0.0 0.00 0.08 0.00 94 1020.7
20260831073604 18 258 0.0 0.0 0.00 0.08 0.00 94 1020.5
20260831073104 18 258 0.0 0.0 0.00 0.08 0.00 94 1020.5
20260831072605 18 258 0.0 0.0 0.00 0.08 0.00 94 1020.5
20260831072104 18 258 0.0 0.0 0.00 0.08 0.00 94 1020.4
20260831071105 18 258 0.0 0.0 0.00 0.08 0.00 93 1020.6
20260831070605 18 258 0.0 0.0 0.00 0.08 0.00 94 1020.5
20260831070104 18 258 0.0 0.0 0.00 0.08 0.00 93 1020.4
20260831065604 18 258 0.0 3.2 0.00 0.08 0.00 93 1020.5
20260831064604 18 253 0.0 0.0 0.00 0.08 0.00 93 1020.4
20260831063605 18 253 0.0 0.0 0.00 0.08 0.00 93 1020.2
20260831063105 18 253 0.0 0.0 0.00 0.08 0.00 93 1020.2
20260831062604 18 253 0.0 0.0 0.00 0.08 0.00 93 1020.2
20260831062103 18 253 0.0 0.0 0.00 0.08 0.00 93 1020.2
20260831061605 18 253 0.0 0.0 0.00 0.08 0.00 93 1020.2
20260831060605 19 253 0.0 1.6 0.00 0.08 0.00 92 1020.1
20260831060104 19 255 0.0 0.0 0.00 0.08 0.00 92 1020.2
20260831055604 19 255 0.0 0.0 0.00 0.08 0.00 92 1020.1
20260831054604 19 255 1.6 3.2 0.00 0.08 0.00 93 1020.1
20260831054104 19 255 0.0 1.6 0.00 0.08 0.00 93 1020.2
20260831053604 19 255 0.0 0.0 0.00 0.08 0.00 93 1020.1
20260831053104 19 255 0.0 4.8 0.00 0.08 0.00 93 1020.2
20260831052605 19 255 1.6 3.2 0.00 0.08 0.00 93 1020.1
20260831052104 20 255 0.0 0.0 0.00 0.08 0.00 93 1020.0
20260831051604 20 255 0.0 0.0 0.00 0.08 0.00 93 1019.8
20260831041104 21 255 0.0 0.0 0.00 0.08 0.00 93 1019.9
20260831040604 21 255 0.0 0.0 0.00 0.08 0.00 93 1020.0
20260831040104 21 255 0.0 0.0 0.00 0.08 0.00 93 1020.1
20260831035104 21 255 0.0 0.0 0.00 0.08 0.08 93 1020.0
20260831034604 21 255 0.0 0.0 0.00 0.08 0.08 93 1020.0
20260831034103 21 255 0.0 0.0 0.00 0.08 0.08 93 1019.9
20260831033104 21 255 0.0 0.0 0.00 0.08 0.08 93 1020.0
20260831032604 21 255 1.6 4.8 0.00 0.08 0.08 93 1020.0
20260831032103 21 255 0.0 1.6 0.00 0.08 0.08 93 1020.1
20260831030604 21 255 1.6 3.2 0.00 0.08 0.08 93 1019.9
20260831030104 21 255 1.6 4.8 0.00 0.08 0.08 93 1019.9
20260831025604 21 255 1.6 3.2 0.00 0.08 0.08 93 1020.1
20260831025104 21 255 0.0 1.6 0.00 0.08 0.08 93 1020.1
20260831024604 21 255 0.0 1.6 0.03 0.08 0.08 93 1020.2
20260831024103 21 255 0.0 1.6 0.03 0.08 0.08 93 1020.2
20260831023605 21 255 1.6 4.8 0.03 0.08 0.08 93 1020.3
20260831023104 22 255 1.6 4.8 0.05 0.08 0.08 93 1020.2
20260831022103 22 254 0.0 3.2 0.05 0.08 0.08 93 1020.3
20260831021604 22 254 0.0 3.2 0.05 0.08 0.08 93 1020.3
20260831020105 22 254 1.6 4.8 0.05 0.08 0.08 93 1020.2
20260831015605 22 257 0.0 3.2 0.05 0.08 0.08 93 1020.1
20260831015104 22 259 0.0 4.8 0.05 0.08 0.08 93 1020.2
20260831014604 22 259 0.0 4.8 0.03 0.05 0.05 92 1020.2
20260831014104 22 275 0.0 0.0 0.03 0.05 0.05 92 1020.2
20260831013604 22 275 0.0 3.2 0.03 0.05 0.05 92 1020.1
20260831012604 22 269 3.2 4.8 0.00 0.03 0.03 92 1020.0
20260831012103 22 293 1.6 4.8 0.00 0.03 0.03 92 1019.8
20260831011604 22 275 0.0 4.8 0.03 0.03 0.03 92 1019.7
20260831010603 22 269 0.0 4.8 0.03 0.03 0.03 91 1019.6
20260831005604 22 269 0.0 3.2 0.03 0.03 0.03 91 1019.5
20260831004604 22 269 1.6 4.8 0.03 0.03 0.03 90 1019.4
20260831004104 22 264 1.6 4.8 0.03 0.03 0.03 90 1019.4
20260831003604 22 263 1.6 4.8 0.03 0.03 0.03 90 1019.4
20260831003104 22 282 0.0 3.2 0.03 0.03 0.03 90 1019.4
20260831002604 23 276 1.6 4.8 0.03 0.03 0.03 89 1019.3
20260831002105 23 272 0.0 4.8 0.03 0.03 0.03 89 1019.3
20260831001604 23 272 4.8 11.3 0.00 0.00 0.00 89 1019.2
20260831001104 23 247 1.6 4.8 0.00 0.00 0.00 88 1019.1
20260831000605 23 247 1.6 4.8 0.00 0.00 0.00 88 1019.1
20260831000105 23 247 1.6 4.8 0.00 0.00 0.00 88 1019.0
20260830235104 23 288 1.6 4.8 0.00 0.00 0.00 88 1018.8
20260830234603 23 289 1.6 8.0 0.00 0.00 0.00 87 1018.8
20260830234103 23 253 3.2 4.8 0.00 0.00 0.00 87 1018.7
20260830233104 23 278 0.0 0.0 0.00 0.00 0.00 86 1018.6
20260830232604 23 278 0.0 0.0 0.00 0.00 0.00 86 1018.6
20260830232104 23 278 0.0 1.6 0.00 0.00 0.00 86 1018.6
20260830231604 23 278 0.0 4.8 0.00 0.00 0.00 85 1018.5
20260830231104 23 274 1.6 3.2 0.00 0.00 0.00 85 1018.6
20260830230604 23 276 0.0 0.0 0.00 0.00 0.00 84 1018.6
20260830225604 23 274 1.6 9.7 0.00 0.00 0.00 84 1018.7
20260830225103 23 273 0.0 3.2 0.00 0.00 0.00 84 1018.7
20260830224604 24 272 3.2 4.8 0.00 0.00 0.00 84 1018.6
20260830224104 24 265 1.6 4.8 0.00 0.00 0.00 83 1018.7
20260830223603 24 263 3.2 4.8 0.00 0.00 0.00 83 1018.7
20260830223104 24 269 1.6 4.8 0.00 0.00 0.00 83 1018.8
20260830222604 24 253 0.0 1.6 0.00 0.00 0.00 83 1018.7
20260830222105 24 253 1.6 4.8 0.00 0.00 0.00 83 1018.7
20260830221604 24 255 1.6 4.8 0.00 0.00 0.00 83 1018.6
20260830221103 24 262 1.6 4.8 0.00 0.00 0.00 82 1018.7
20260830220604 24 263 3.2 4.8 0.00 0.00 0.00 82 1018.7
20260830220104 24 264 3.2 8.0 0.00 0.00 0.00 82 1018.7
20260830215604 24 269 3.2 4.8 0.00 0.00 0.00 82 1018.6
20260830215103 24 262 1.6 4.8 0.00 0.00 0.00 82 1018.6
20260830214604 24 284 4.8 9.7 0.00 0.00 0.00 82 1018.6
20260830214104 24 284 1.6 12.9 0.00 0.00 0.00 82 1018.6
20260830213604 24 256 1.6 4.8 0.00 0.00 0.00 82 1018.6
20260830213103 24 257 3.2 4.8 0.00 0.00 0.00 82 1018.6
20260830212604 24 284 3.2 8.0 0.00 0.00 0.00 82 1018.5
20260830212105 24 256 3.2 8.0 0.00 0.00 0.00 82 1018.5
20260830211604 24 261 0.0 4.8 0.00 0.00 0.00 83 1018.5
20260830211104 25 255 3.2 9.7 0.00 0.00 0.00 82 1018.5
20260830210604 25 290 1.6 4.8 0.00 0.00 0.00 82 1018.6
20260830210104 25 292 1.6 4.8 0.00 0.00 0.00 82 1018.6
20260830205603 25 286 0.0 9.7 0.00 0.00 0.00 82 1018.7
20260830204605 25 264 3.2 12.9 0.00 0.00 0.00 82 1018.7
20260830204104 25 253 3.2 4.8 0.00 0.00 0.00 82 1018.8
20260830203603 25 259 4.8 8.0 0.00 0.00 0.00 81 1018.9
20260830203105 25 250 0.0 1.6 0.00 0.00 0.00 82 1018.8
20260830202604 25 250 4.8 12.9 0.00 0.00 0.00 81 1018.7
20260830202104 25 240 6.4 12.9 0.00 0.00 0.00 81 1018.7
20260830201103 25 269 3.2 12.9 0.00 0.00 0.00 83 1019.0
20260830200604 24 259 1.6 4.8 0.00 0.00 0.00 83 1018.9
20260830200104 24 256 0.0 1.6 0.00 0.00 0.00 83 1018.9
20260830195104 25 185 1.6 4.8 0.00 0.00 0.00 82 1018.9
20260830194603 25 253 3.2 9.7 0.00 0.00 0.00 81 1018.9
20260830194105 25 221 3.2 11.3 0.00 0.00 0.00 81 1018.9
20260830193603 25 243 1.6 14.5 0.00 0.00 0.00 81 1019.0
20260830193104 25 250 4.8 14.5 0.00 0.00 0.00 80 1019.1
20260830192603 25 241 1.6 16.1 0.00 0.00 0.00 80 1019.2
20260830192104 25 267 8.0 19.3 0.00 0.00 0.00 79 1019.2
20260830191604 25 231 1.6 8.0 0.00 0.00 0.00 81 1019.2
20260830191105 25 246 3.2 8.0 0.00 0.00 0.00 81 1019.3
20260830190103 25 274 3.2 12.9 0.00 0.00 0.00 80 1019.7
20260830185104 25 189 1.6 8.0 0.00 0.00 0.00 79 1019.9
20260830184603 25 203 1.6 8.0 0.00 0.00 0.00 79 1020.0
20260830184103 25 284 3.2 8.0 0.00 0.00 0.00 80 1020.0
20260830183605 25 228 3.2 4.8 0.00 0.00 0.00 78 1019.9
20260830183104 25 220 3.2 4.8 0.00 0.00 0.00 78 1020.1
20260830182604 25 214 4.8 11.3 0.00 0.00 0.00 77 1020.2
20260830182103 25 244 1.6 3.2 0.00 0.00 0.00 77 1020.2
20260830181604 24 249 4.8 16.1 0.00 0.00 0.00 76 1020.3
20260830181104 25 198 1.6 11.3 0.00 0.00 0.00 75 1020.4
20260830180604 25 249 3.2 12.9 0.00 0.00 0.00 74 1020.4
20260830180104 25 251 4.8 11.3 0.00 0.00 0.00 74 1020.3
20260830175603 25 244 3.2 12.9 0.00 0.00 0.00 73 1020.3
20260830175104 25 267 1.6 16.1 0.00 0.00 0.00 73 1020.3
20260830174604 25 204 1.6 11.3 0.00 0.00 0.00 72 1020.3
20260830174105 25 235 1.6 9.7 0.00 0.00 0.00 72 1020.4
20260830173605 25 269 3.2 8.0 0.00 0.00 0.00 70 1020.5
20260830172103 25 289 4.8 16.1 0.00 0.00 0.00 69 1020.6
20260830171604 26 259 3.2 16.1 0.00 0.00 0.00 68 1020.7
20260830171104 26 255 6.4 16.1 0.00 0.00 0.00 67 1020.8
20260830170605 26 264 3.2 12.9 0.00 0.00 0.00 69 1020.8
20260830170103 26 249 3.2 12.9 0.00 0.00 0.00 68 1020.8
20260830165604 26 283 8.0 16.1 0.00 0.00 0.00 67 1020.8
20260830165103 25 280 4.8 14.5 0.00 0.00 0.00 68 1020.8
20260830164604 25 271 8.0 16.1 0.00 0.00 0.00 68 1021.0
20260830164104 26 298 6.4 12.9 0.00 0.00 0.00 67 1021.1
20260830163606 25 278 4.8 11.3 0.00 0.00 0.00 67 1021.0
20260830163104 25 301 1.6 4.8 0.00 0.00 0.00 67 1021.0
20260830161606 26 299 3.2 9.7 0.00 0.00 0.00 63 1021.0
20260830161105 27 268 3.2 11.3 0.00 0.00 0.00 65 1021.1
20260830155605 26 202 3.2 8.0 0.00 0.00 0.00 66 1021.4
20260830155105 26 171 3.2 11.3 0.00 0.00 0.00 67 1021.3
20260830154105 26 208 1.6 8.0 0.00 0.00 0.00 66 1021.7
20260830153605 26 259 4.8 9.7 0.00 0.00 0.00 65 1021.7
20260830153105 26 206 1.6 4.8 0.00 0.00 0.00 67 1021.8
20260830152604 26 189 3.2 8.0 0.00 0.00 0.00 69 1021.9
20260830151605 25 142 1.6 4.8 0.00 0.00 0.00 72 1021.9
20260830151105 24 221 1.6 3.2 0.00 0.00 0.00 71 1022.1
20260830150104 24 201 1.6 4.8 0.00 0.00 0.00 69 1022.3
20260830145605 24 209 1.6 4.8 0.00 0.00 0.00 69 1022.3
20260830145104 24 230 1.6 4.8 0.00 0.00 0.00 68 1022.2
20260830144605 24 237 4.8 12.9 0.00 0.00 0.00 65 1022.3
20260830144105 25 242 0.0 4.8 0.00 0.00 0.00 66 1022.3
20260830143606 24 276 0.0 8.0 0.00 0.00 0.00 68 1022.4
20260830143105 24 265 4.8 8.0 0.00 0.00 0.00 65 1022.4
20260830142605 24 307 1.6 4.8 0.00 0.00 0.00 67 1022.5
20260830142105 23 263 3.2 8.0 0.00 0.00 0.00 66 1022.5
20260830141605 23 168 0.0 0.0 0.00 0.00 0.00 68 1022.5
20260830141105 23 168 0.0 4.8 0.00 0.00 0.00 69 1022.5
20260830140605 23 168 1.6 3.2 0.00 0.00 0.00 72 1022.5
20260830140104 23 156 1.6 4.8 0.00 0.00 0.00 72 1022.6
20260830135604 23 201 0.0 4.8 0.00 0.00 0.00 70 1022.6
20260830135105 23 224 1.6 4.8 0.00 0.00 0.00 73 1022.5
20260830134605 22 146 3.2 4.8 0.00 0.00 0.00 74 1022.4
20260830134105 22 146 3.2 4.8 0.00 0.00 0.00 73 1022.4
20260830133605 23 167 1.6 8.0 0.00 0.00 0.00 73 1022.4
20260830133104 23 162 3.2 4.8 0.00 0.00 0.00 73 1022.4
20260830132604 22 265 0.0 1.6 0.00 0.00 0.00 72 1022.6
20260830132105 23 265 0.0 3.2 0.00 0.00 0.00 71 1022.7
20260830131605 22 265 3.2 4.8 0.00 0.00 0.00 73 1022.7
20260830131105 22 265 0.0 4.8 0.00 0.00 0.00 74 1022.8
20260830130605 22 265 1.6 4.8 0.00 0.00 0.00 75 1022.8
20260830130105 22 265 1.6 3.2 0.00 0.00 0.00 77 1022.9
20260830125605 21 265 1.6 4.8 0.00 0.00 0.00 78 1022.9
20260830125106 21 265 1.6 3.2 0.00 0.00 0.00 79 1023.0
20260830124605 20 265 1.6 4.8 0.00 0.00 0.00 81 1023.2
20260830124104 20 265 0.0 1.6 0.00 0.00 0.00 83 1023.2
20260830123605 19 265 0.0 1.6 0.00 0.00 0.00 86 1023.2
20260830122605 18 265 0.0 1.6 0.00 0.00 0.00 89 1023.3
20260830122105 17 265 0.0 0.0 0.00 0.00 0.00 91 1023.3
20260830121605 17 265 0.0 0.0 0.00 0.00 0.00 91 1023.4
20260830121105 17 265 0.0 0.0 0.00 0.00 0.00 91 1023.4
20260830120105 17 265 0.0 0.0 0.00 0.00 0.00 92 1023.5
20260830115604 17 265 0.0 0.0 0.00 0.00 0.00 93 1023.5
20260830115104 17 265 1.6 3.2 0.00 0.00 0.00 93 1023.5
20260830114606 16 265 1.6 3.2 0.00 0.00 0.00 94 1023.6
20260830113604 16 265 0.0 0.0 0.00 0.00 0.00 94 1023.7
20260830113105 15 265 0.0 0.0 0.00 0.00 0.00 94 1023.7
20260830112105 15 265 0.0 0.0 0.00 0.00 0.00 94 1023.8
20260830111605 15 265 0.0 0.0 0.00 0.00 0.00 94 1023.7
20260830110605 15 265 0.0 0.0 0.00 0.00 0.00 93 1023.5
20260830110104 15 265 0.0 0.0 0.00 0.00 0.00 93 1023.5
20260830105605 15 265 0.0 0.0 0.00 0.00 0.00 93 1023.6
20260830105105 15 265 0.0 0.0 0.00 0.00 0.00 93 1023.5
20260830104605 15 265 0.0 0.0 0.00 0.00 0.00 93 1023.5